Hourly Data Report for April 19, 2006

TORONTO CITY
ONTARIO

43°40'00.000" N
79°24'00.000" W
112.50 m
6158355
71508
XTO

Download Data

Hourly Data (April 2006)
Hourly Data Report for April 19, 2006
TIME
LST
Temp Definition
°C
Dew Point Definition
°C
Rel Hum Definition
%
Precip. Amount Definition
mm

Wind Dir Definition
10's deg

Wind Spd Definition
km/h
Visibility Definition
km
Stn Press Definition
kPa
Hmdx Definition


Wind Chill Definition


Weather Definition


00:00 12.4 4.0 56   LegendMM LegendMM   100.24     LegendNANA
01:00 12.8 4.0 55   LegendMM LegendMM   100.22     LegendNANA
02:00 12.1 4.0 58   LegendMM LegendMM   100.22     LegendNANA
03:00 12.2 4.0 57   LegendMM LegendMM   100.22     LegendNANA
04:00 12.5 3.4 54   LegendMM LegendMM   100.24     LegendNANA
05:00 12.4 3.2 53   LegendMM LegendMM   100.23     LegendNANA
06:00 11.9 3.1 55   LegendMM LegendMM   100.26     LegendNANA
07:00 13.0 3.0 51   LegendMM LegendMM   100.32     LegendNANA
08:00 15.1 3.4 45   LegendMM LegendMM   100.32     LegendNANA
09:00 16.1 2.2 39   LegendMM LegendMM   100.36     LegendNANA
10:00 15.7 3.2 43   LegendMM LegendMM   100.39     LegendNANA
11:00 15.9 3.8 44   LegendMM LegendMM   100.37     LegendNANA
12:00 15.8 4.1 46   LegendMM LegendMM   100.31     LegendNANA
13:00 17.2 6.0 48   LegendMM LegendMM   100.26     LegendNANA
14:00 17.0 4.0 42   LegendMM LegendMM   100.23     LegendNANA
15:00 16.5 4.1 44   LegendMM LegendMM   100.19     LegendNANA
16:00 17.4 4.7 43   LegendMM LegendMM   100.12     LegendNANA
17:00 17.0 3.4 40   LegendMM LegendMM   100.11     LegendNANA
18:00 16.1 3.1 42   LegendMM LegendMM   100.10     LegendNANA
19:00 15.3 2.9 43   LegendMM LegendMM   100.10     LegendNANA
20:00 14.3 3.0 47   LegendMM LegendMM   100.13     LegendNANA
21:00 14.2 3.8 50   LegendMM LegendMM   100.13     LegendNANA
22:00 16.4 3.7 43   LegendMM LegendMM   100.11     LegendNANA
23:00 15.2 2.7 43   LegendMM LegendMM   100.08     LegendNANA

Notes on Data Quality.

Legend

  • E = Estimated
  • M = Missing
  • NA = Not Available*
  • [empty] = Indicates an unobserved value
Date modified: